Iron Mountain, MI

4:16 PM CDT on April 28, 2017 (GMT -0500)
Ford

Weather History for KIMT - October, 2011

Change the Weather History Date:

Monday, October 10, 2011

  Actual Average Record
Temperature  
Mean Temperature 58 °F -  
Max Temperature 75 °F 57 °F 84 °F (1938)
Min Temperature 42 °F 36 °F 21 °F (1952)
Degree Days  
Heating Degree Days 6    
Growing Degree Days 8 (Base 50)    
Moisture  
Dew Point 47 °F    
Average Humidity 84    
Maximum Humidity 100    
Minimum Humidity 35    
Precipitation  
Precipitation 0.00 in - - ()
Sea Level Pressure  
Sea Level Pressure 30.19 in    
Wind  
Wind Speed 1 mph (SE)    
Max Wind Speed 16 mph    
Max Gust Speed 23 mph    
Visibility 4 miles    
Events Fog    
Averages and records for this station are not official NWS values.
T = Trace of Precipitation, MM = Missing Value Source: NWS Daily Summary

Daily Weather History Graph

Daily Weather History Graph

Search for Another Location

Airport or City:

Trip Planner

Search our weather history database for the weather conditions in past years. The results will help you decide how hot, cold, wet, or windy it might be!

Date:

Astronomy

Oct. 10, 2011 Rise Set
Actual Time 7:02 AM CDT 6:16 PM CDT
Civil Twilight 6:32 AM CDT 6:45 PM CDT
Nautical Twilight 5:57 AM CDT 7:20 PM CDT
Astronomical Twilight 5:23 AM CDT 7:54 PM CDT
Moon 5:19 PM CDT (10/10) 5:41 AM CDT (10/10)
Length of Visible Light 12h 13m
Length of Day
11h 13m
Waxing Gibbous, 98% of the Moon is Illuminated
Oct 10
Waxing Gibbous
Oct 11
Full
Oct 19
Last Quarter
Oct 26
New
Nov 2
First Quarter

Hourly Weather History & Observations

Time (CDT) Temp. Dew Point Humidity Pressure Visibility Wind Dir Wind Speed Gust Speed Precip Events Conditions
12:54 AM 50.0 °F 48.9 °F 96% 30.25 in 2.5 mi Calm Calm - N/A   Clear
12:59 AM 50.0 °F 48.2 °F 94% 30.25 in 0.5 mi Calm Calm - N/A Fog Fog
1:13 AM 48.2 °F 46.4 °F 93% 30.25 in 2.0 mi Calm Calm - N/A   Clear
1:35 AM 48.2 °F 48.2 °F 100% 30.26 in 0.8 mi Calm Calm - N/A   Clear
1:47 AM 48.2 °F 46.4 °F 93% 30.25 in 1.0 mi Calm Calm - N/A   Mist
1:54 AM 46.9 °F 46.0 °F 97% 30.25 in 0.5 mi Calm Calm - N/A Fog Fog
2:04 AM 46.4 °F 44.6 °F 93% 30.25 in 0.5 mi Calm Calm - N/A Fog Fog
2:16 AM 48.2 °F 46.4 °F 93% 30.25 in 0.2 mi Calm Calm - N/A Fog Fog
2:40 AM 46.4 °F 46.4 °F 100% 30.24 in 0.5 mi Calm Calm - N/A Fog Fog
2:54 AM 46.0 °F 43.0 °F 89% 30.24 in 0.5 mi Calm Calm - N/A Fog Fog
3:20 AM 44.6 °F 44.6 °F 100% 30.24 in 0.2 mi Calm Calm - N/A Fog Fog
3:39 AM 44.6 °F 44.6 °F 100% 30.23 in 0.2 mi Calm Calm - N/A Fog Fog
3:54 AM 45.0 °F 44.1 °F 97% 30.23 in 0.5 mi Calm Calm - N/A Fog Fog
3:57 AM 44.6 °F 42.8 °F 93% 30.23 in 2.0 mi Calm Calm - N/A   Overcast
4:05 AM 44.6 °F 44.6 °F 100% 30.23 in 4.0 mi Calm Calm - N/A   Overcast
4:10 AM 44.6 °F 42.8 °F 93% 30.23 in 0.8 mi Calm Calm - N/A   Mist
4:18 AM 44.6 °F 44.6 °F 100% 30.23 in 0.2 mi Calm Calm - N/A Fog Fog
5:47 AM 42.8 °F 42.8 °F 100% 30.23 in 1.0 mi Calm Calm - N/A   Mist
5:54 AM 44.1 °F 43.0 °F 96% 30.24 in 1.0 mi Calm Calm - N/A   Mist
6:21 AM 42.8 °F 42.8 °F 100% 30.24 in 0.2 mi Calm Calm - N/A Fog Fog
6:54 AM 42.1 °F 42.1 °F 100% 30.25 in 0.2 mi Calm Calm - N/A Fog Fog
7:21 AM 42.8 °F 42.8 °F 100% 30.24 in 0.2 mi Calm Calm - N/A Fog Fog
7:50 AM 44.6 °F 42.8 °F 93% 30.24 in 1.0 mi Calm Calm - N/A   Mist
8:19 AM 46.4 °F 46.4 °F 100% 30.24 in 0.2 mi Calm Calm - N/A Fog Fog
8:32 AM 46.4 °F 46.4 °F 100% 30.24 in 0.2 mi Calm Calm - N/A Fog Fog
8:54 AM 48.0 °F 48.0 °F 100% 30.26 in 0.2 mi Calm Calm - N/A Fog Fog
9:11 AM 50.0 °F 50.0 °F 100% 30.24 in 0.5 mi Calm Calm - N/A Fog Fog
9:20 AM 51.8 °F 51.8 °F 100% 30.23 in 1.5 mi Calm Calm - N/A   Mostly Cloudy
9:23 AM 53.6 °F 51.8 °F 94% 30.23 in 2.0 mi Calm Calm - N/A   Scattered Clouds
9:41 AM 55.4 °F 53.6 °F 94% 30.23 in 3.0 mi Calm Calm - N/A   Clear
9:54 AM 57.0 °F 53.1 °F 87% 30.24 in 5.0 mi SSE 5.8 mph - N/A   Clear
10:54 AM 66.0 °F 53.1 °F 63% 30.21 in 9.0 mi ESE 5.8 mph - N/A   Clear
11:54 AM 70.0 °F 53.1 °F 55% 30.18 in 10.0 mi Variable 4.6 mph - N/A   Clear
12:54 PM 73.9 °F 52.0 °F 46% 30.15 in 10.0 mi SSE 10.4 mph - N/A   Clear
1:54 PM 75.0 °F 50.0 °F 41% 30.12 in 10.0 mi SE 16.1 mph 23.0 mph N/A   Clear
2:54 PM 73.0 °F 46.9 °F 39% 30.10 in 10.0 mi SSE 9.2 mph 19.6 mph N/A   Clear
3:54 PM 72.0 °F 43.0 °F 35% 30.07 in 10.0 mi SE 10.4 mph - N/A   Clear
4:54 PM 71.1 °F 44.1 °F 38% 30.06 in 10.0 mi SE 12.7 mph 19.6 mph N/A   Clear
5:54 PM 68.0 °F 46.9 °F 47% 30.06 in 10.0 mi SSE 10.4 mph - N/A   Clear
6:54 PM 64.9 °F 48.0 °F 54% 30.06 in 10.0 mi SE 6.9 mph - N/A   Clear
7:54 PM 63.0 °F 48.0 °F 58% 30.06 in 10.0 mi SE 6.9 mph - N/A   Clear
8:54 PM 60.1 °F 48.0 °F 64% 30.05 in 10.0 mi SE 4.6 mph - N/A   Clear
9:54 PM 55.9 °F 46.9 °F 72% 30.04 in 10.0 mi SE 4.6 mph - N/A   Clear
10:54 PM 53.1 °F 46.9 °F 80% 30.02 in 10.0 mi SE 4.6 mph - N/A   Clear
11:54 PM 52.0 °F 46.9 °F 83% 30.03 in 10.0 mi SE 4.6 mph - N/A   Clear